Hourly Weather Roundup
Issued by NWS

Home | Current Version | Previous Version | Text Only | Print | Product List | Glossary On
Versions: 1 2 3 4 5 6 7 8 9 10 11 12 13 14 15 16 17 18 19 20 21 22 23 24 25 26 27 28 29 30 31 32 33 34 35 36 37 38 39 40 41 42 43 44 45 46 47 48 49 50
000
NZUS43 KILX 310110
HWRCRS

CRS HOURLY WEATHER ROUNDUP
NATIONAL WEATHER SERVICE, LINCOLN IL
800 PM CDT THU JUL 30 2015


CITY           SKY/WX    TMP DP  RH WIND       PRES   REMARKS
CHAMPAIGN      CLEAR     77  70  79 W5        30.06S
LAWRENCEVILLE  PTCLDY    79  67  66 W5        30.06S HX  81
PEORIA         CLEAR     83  64  52 W5        30.06S HX  84
SPRINGFIELD    CLEAR     78  70  76 W6        30.07S HX  80
$$


CITY           SKY/WX    TMP DP  RH WIND       PRES   REMARKS
BLOOMINGTON    CLEAR     82  65  56 W10       30.07S HX  84
DECATUR        CLEAR     82  62  50 W8        30.07S HX  83
EFFINGHAM      PTCLDY    79  63  57 SW5       30.08F HX  81
FLORA          PTCLDY    80  63  56 W6        30.08S HX  81
GALESBURG      CLEAR     78  66  65 W6        30.07S HX  80
JACKSONVILLE   CLEAR     81  69  67 SW5       30.08F HX  83
LACON          CLEAR     80  65  60 W5        30.03S HX  82
LINCOLN        CLEAR     83  63  51 CALM      30.05S HX  84
LITCHFIELD     PTCLDY    76  67  74 W5        30.10S

CITY           SKY/WX    TMP DP  RH WIND       PRES   REMARKS
MACOMB         CLEAR     78  67  70 W5        30.09S HX  80
MATTOON        CLEAR     77  62  59 W5        30.06S
MOLINE         CLEAR     82  65  56 W8        30.04S HX  84
OLNEY          PTCLDY    77  68  73 W3        30.07S
PARIS          CLEAR     76  68  76 CALM      30.06S
PONTIAC        CLEAR     77  70  78 W6        30.04S
QUINCY         CLEAR     81  63  54 W6        30.10S HX  82
RANTOUL        CLEAR     80  68  67 CALM      30.05S HX  82
ROBINSON       PTCLDY    76  68  76 W3        30.06S
TAYLORVILLE    CLEAR     75  68  78 W6        30.08S
TERRE HAUTE    CLEAR     79  62  56 NW5       30.05S HX  80
$$


CITY           SKY/WX    TMP DP  RH WIND       PRES   REMARKS
BURLINGTON     CLEAR     80  66  62 W3        30.07S HX  82
CHICAGO        CLEAR     83  55  38 W13       29.99S HX  82
DES MOINES     PTCLDY    82  65  56 W6        30.09S HX  84
EVANSVILLE     PTCLDY    79  66  64 W5        30.06S HX  81
INDIANAPOLIS   PTCLDY    78  57  48 W7        30.04S
KANSAS CITY    PTCLDY    83  67  58 CALM      30.14S HX  85
MILWAUKEE      CLEAR     84  50  30 W10       29.97R HX  82
ST LOUIS       PTCLDY    84  62  47 NW6       30.10F HX  85
$$




USA.gov is the U.S. government's official web portal to all federal, state and local government web resources and services.